GFSSW_500_temp_189.txt.gz
Temp
-8 -8 -8 -8 -8 -8 -8 -8 -9 -9 -10 -10 -10 -10 -10 -10 -9 -9 -9 -9 -8 -8 -8 -8 -8 -8 -7 -7 -7 -6 -5 -5 -5 -4 -4 -4 -4 -4 -4 -4 -4 -4 -5 -5 -4
-8 -8 -8 -8 -8 -8 -8 -8 -8 -8 -9 -9 -10 -10 -10 -10 -9 -9 -10 -9 -9 -8 -8 -8 -8 -8 -7 -7 -7 -7 -6 -5 -5 -4 -4 -4 -4 -4 -4 -4 -4 -4 -4 -5 -5
-8 -8 -8 -8 -8 -8 -8 -9 -8 -8 -8 -9 -9 -10 -10 -10 -9 -9 -9 -9 -9 -9 -8 -8 -8 -8 -8 -7 -7 -6 -5 -5 -5 -5 -5 -4 -4 -4 -4 -4 -4 -5 -5 -5 -6
-8 -8 -8 -8 -8 -8 -8 -8 -8 -8 -8 -9 -9 -9 -9 -9 -9 -9 -9 -9 -9 -9 -9 -9 -8 -8 -8 -7 -6 -5 -5 -4 -4 -4 -4 -4 -4 -4 -4 -4 -4 -4 -5 -5 -6
-8 -8 -8 -8 -8 -8 -8 -8 -8 -8 -8 -8 -9 -9 -9 -9 -9 -9 -9 -9 -9 -9 -9 -8 -8 -7 -7 -7 -6 -5 -5 -4 -3 -3 -4 -4 -4 -4 -4 -5 -5 -5 -5 -6 -5
-8 -8 -8 -8 -8 -8 -8 -8 -8 -8 -8 -8 -8 -8 -8 -8 -9 -9 -9 -9 -9 -9 -9 -8 -8 -7 -7 -8 -6 -5 -5 -5 -5 -4 -4 -4 -4 -4 -4 -5 -5 -5 -5 -5 -6
-7 -7 -8 -8 -8 -8 -8 -8 -8 -8 -8 -8 -8 -8 -8 -8 -9 -9 -8 -8 -9 -9 -9 -8 -8 -7 -8 -8 -7 -6 -6 -6 -5 -5 -4 -4 -4 -4 -4 -5 -5 -6 -6 -5 -6
-7 -7 -7 -7 -8 -7 -8 -8 -7 -8 -8 -8 -8 -7 -7 -8 -9 -8 -8 -8 -8 -9 -9 -8 -8 -7 -7 -7 -7 -7 -6 -6 -6 -6 -5 -4 -4 -4 -4 -5 -5 -5 -6 -5 -6
-7 -7 -7 -7 -7 -7 -7 -7 -8 -7 -7 -7 -7 -7 -7 -7 -8 -8 -8 -8 -8 -8 -9 -8 -8 -7 -7 -7 -7 -7 -6 -6 -6 -6 -6 -5 -4 -4 -4 -5 -5 -5 -5 -6 -6
-7 -7 -7 -7 -7 -7 -7 -7 -7 -8 -7 -7 -7 -7 -7 -7 -8 -8 -8 -8 -8 -8 -8 -8 -7 -7 -6 -7 -7 -8 -8 -6 -6 -5 -6 -5 -4 -4 -5 -4 -5 -5 -5 -5 -5
-9 -8 -7 -7 -7 -7 -7 -7 -7 -7 -8 -7 -7 -7 -7 -7 -8 -7 -7 -7 -8 -8 -8 -8 -6 -6 -7 -7 -7 -7 -7 -6 -6 -6 -6 -5 -5 -4 -5 -4 -5 -5 -5 -5 -5
-11 -11 -10 -8 -7 -7 -7 -7 -7 -7 -7 -7 -7 -7 -7 -7 -7 -7 -7 -7 -7 -8 -8 -7 -5 -7 -8 -7 -7 -7 -8 -7 -7 -6 -6 -6 -5 -5 -4 -4 -4 -5 -5 -5 -4
-14 -13 -12 -11 -10 -9 -8 -8 -7 -7 -7 -7 -7 -7 -7 -7 -7 -7 -7 -7 -7 -8 -7 -7 -6 -7 -7 -7 -7 -7 -7 -8 -7 -7 -6 -5 -5 -5 -4 -4 -4 -4 -5 -4 -4
-15 -15 -15 -14 -12 -11 -10 -9 -8 -7 -7 -7 -7 -7 -8 -7 -7 -8 -7 -7 -7 -7 -7 -8 -7 -7 -7 -7 -7 -7 -8 -8 -8 -8 -7 -6 -6 -5 -5 -4 -4 -4 -4 -4 -4
-16 -15 -16 -16 -15 -13 -12 -11 -10 -8 -8 -8 -7 -7 -8 -7 -7 -8 -7 -7 -7 -7 -7 -6 -6 -7 -7 -7 -7 -8 -9 -8 -8 -8 -7 -6 -6 -6 -5 -4 -4 -4 -4 -4 -4
-16 -16 -15 -15 -15 -16 -15 -13 -12 -10 -8 -8 -7 -7 -7 -8 -7 -8 -7 -7 -7 -7 -7 -7 -7 -7 -6 -7 -8 -9 -9 -8 -7 -8 -7 -7 -7 -7 -6 -5 -4 -4 -4 -4 -4
-16 -15 -15 -16 -16 -16 -16 -16 -14 -11 -10 -9 -8 -8 -7 -7 -7 -7 -7 -6 -6 -6 -6 -7 -6 -7 -7 -8 -8 -8 -9 -9 -8 -7 -7 -7 -7 -7 -6 -5 -4 -4 -4 -4 -4
-16 -16 -16 -16 -16 -16 -17 -17 -16 -12 -12 -10 -9 -9 -8 -7 -8 -7 -8 -7 -7 -7 -7 -6 -6 -6 -6 -7 -7 -7 -8 -8 -7 -7 -7 -7 -6 -7 -7 -6 -5 -4 -4 -3 -3
-17 -17 -17 -17 -17 -17 -17 -16 -16 -14 -12 -12 -11 -10 -9 -8 -8 -8 -7 -7 -7 -7 -6 -7 -6 -6 -6 -7 -7 -8 -8 -8 -8 -7 -7 -7 -6 -7 -7 -5 -4 -5 -4 -3 -3
-17 -18 -18 -18 -18 -18 -20 -18 -15 -15 -15 -13 -13 -11 -10 -9 -8 -8 -8 -7 -7 -7 -7 -7 -7 -6 -7 -7 -7 -8 -8 -7 -7 -7 -7 -6 -7 -6 -6 -5 -4 -4 -4 -3 -3
-18 -19 -19 -19 -19 -21 -21 -21 -20 -17 -16 -15 -14 -13 -11 -9 -9 -8 -8 -8 -7 -7 -7 -7 -7 -6 -7 -7 -7 -8 -7 -8 -7 -6 -7 -6 -6 -6 -6 -4 -4 -4 -4 -4 -4
-19 -20 -20 -20 -21 -22 -22 -22 -22 -20 -18 -16 -15 -14 -13 -11 -10 -9 -8 -8 -8 -7 -7 -7 -7 -7 -6 -7 -7 -7 -7 -7 -7 -6 -6 -6 -6 -6 -6 -6 -5 -4 -4 -4 -4
-20 -21 -20 -20 -21 -22 -23 -23 -22 -21 -20 -18 -16 -14 -13 -12 -11 -10 -9 -9 -8 -8 -8 -8 -7 -7 -7 -7 -7 -7 -7 -7 -7 -6 -6 -6 -6 -6 -6 -6 -6 -6 -5 -5 -5
-21 -21 -21 -21 -22 -23 -23 -23 -23 -22 -21 -19 -17 -15 -14 -13 -11 -11 -10 -9 -8 -8 -8 -7 -7 -6 -6 -5 -6 -7 -7 -7 -7 -6 -6 -5 -7 -6 -6 -6 -7 -7 -6 -6 -5
-21 -21 -21 -22 -22 -23 -23 -23 -23 -22 -21 -21 -19 -17 -15 -13 -12 -12 -11 -10 -9 -8 -8 -8 -7 -6 -6 -6 -7 -7 -7 -7 -6 -7 -6 -5 -7 -6 -6 -6 -7 -7 -7 -6 -6
-22 -22 -22 -22 -23 -23 -24 -23 -23 -22 -22 -21 -20 -18 -16 -14 -13 -12 -11 -11 -9 -9 -8 -8 -7 -7 -6 -6 -6 -7 -7 -7 -7 -6 -6 -6 -6 -6 -6 -6 -6 -8 -7 -7 -6
-22 -22 -23 -23 -23 -24 -24 -24 -24 -23 -22 -22 -21 -19 -17 -15 -13 -13 -12 -11 -10 -9 -8 -8 -8 -7 -6 -7 -7 -6 -6 -6 -6 -7 -6 -5 -5 -6 -6 -6 -6 -7 -7 -7 -7

GFSSW_500_temp_192.txt.gz
Temp
-8 -8 -8 -8 -8 -9 -9 -9 -9 -9 -9 -9 -9 -9 -9 -9 -9 -9 -9 -9 -8 -8 -8 -8 -7 -7 -7 -7 -6 -6 -6 -7 -5 -4 -4 -4 -4 -4 -4 -4 -4 -4 -4 -4 -4
-8 -8 -8 -8 -8 -8 -9 -9 -9 -9 -9 -9 -9 -9 -9 -9 -9 -9 -9 -9 -9 -8 -8 -8 -7 -7 -7 -7 -6 -6 -6 -5 -5 -5 -4 -4 -4 -4 -4 -4 -4 -4 -4 -4 -5
-8 -8 -8 -8 -8 -8 -8 -9 -9 -9 -8 -9 -9 -10 -9 -9 -9 -9 -9 -9 -9 -8 -8 -8 -7 -8 -8 -8 -7 -6 -6 -5 -5 -5 -4 -4 -4 -4 -4 -4 -4 -4 -4 -4 -4
-8 -8 -8 -8 -8 -8 -8 -8 -9 -9 -9 -8 -8 -9 -9 -9 -10 -9 -9 -9 -9 -9 -8 -8 -8 -8 -8 -7 -7 -6 -5 -5 -4 -4 -3 -4 -4 -4 -4 -4 -4 -4 -4 -5 -4
-8 -8 -8 -8 -8 -8 -8 -8 -8 -9 -9 -9 -9 -9 -9 -9 -9 -9 -9 -9 -9 -9 -9 -8 -8 -8 -8 -7 -6 -6 -5 -5 -4 -3 -3 -3 -4 -3 -3 -3 -4 -4 -4 -5 -5
-8 -8 -8 -8 -8 -8 -8 -8 -8 -8 -8 -9 -9 -9 -9 -8 -9 -8 -8 -9 -9 -9 -9 -8 -7 -8 -8 -8 -7 -7 -6 -5 -5 -5 -4 -4 -4 -4 -4 -4 -4 -4 -4 -5 -5
-7 -7 -7 -8 -8 -8 -8 -8 -8 -8 -8 -8 -8 -9 -9 -9 -9 -8 -8 -8 -9 -9 -9 -9 -8 -8 -8 -8 -8 -7 -6 -6 -5 -5 -5 -5 -4 -4 -4 -4 -4 -5 -5 -5 -5
-7 -7 -7 -7 -7 -7 -8 -8 -8 -8 -8 -8 -8 -8 -8 -8 -9 -9 -8 -8 -9 -9 -9 -8 -8 -7 -8 -8 -8 -8 -7 -7 -6 -6 -5 -5 -4 -4 -4 -5 -5 -5 -5 -5 -5
-8 -7 -7 -7 -7 -7 -7 -7 -8 -8 -8 -8 -8 -8 -8 -8 -9 -9 -8 -8 -8 -8 -9 -8 -8 -7 -7 -8 -8 -8 -8 -7 -6 -6 -5 -5 -5 -5 -5 -5 -5 -5 -6 -6 -6
-9 -8 -8 -7 -7 -7 -7 -7 -7 -8 -8 -8 -8 -8 -8 -8 -8 -8 -8 -8 -8 -8 -8 -8 -8 -7 -7 -8 -8 -8 -8 -8 -7 -6 -5 -5 -5 -5 -4 -5 -5 -5 -5 -5 -5
-12 -10 -9 -9 -8 -8 -7 -7 -8 -8 -8 -7 -7 -8 -7 -8 -8 -8 -8 -8 -8 -8 -8 -8 -7 -6 -6 -7 -9 -9 -8 -9 -8 -6 -6 -6 -5 -5 -5 -4 -5 -5 -5 -5 -5
-14 -13 -12 -11 -10 -10 -9 -8 -7 -7 -8 -8 -7 -7 -8 -8 -8 -8 -8 -8 -8 -8 -8 -8 -6 -7 -7 -7 -8 -8 -8 -8 -8 -6 -6 -6 -5 -5 -5 -5 -4 -5 -5 -5 -5
-15 -15 -15 -14 -12 -11 -10 -10 -8 -7 -7 -8 -8 -7 -8 -7 -8 -8 -8 -8 -8 -8 -8 -7 -6 -7 -7 -7 -7 -8 -8 -8 -8 -7 -7 -6 -5 -5 -5 -4 -4 -4 -4 -4 -4
-15 -15 -15 -15 -15 -14 -12 -11 -10 -9 -8 -7 -8 -8 -8 -8 -7 -8 -8 -7 -7 -8 -8 -7 -8 -7 -7 -7 -7 -8 -8 -8 -8 -7 -8 -7 -7 -6 -5 -4 -4 -4 -4 -4 -4
-15 -15 -15 -15 -16 -16 -15 -13 -12 -11 -10 -8 -8 -7 -8 -8 -7 -8 -8 -7 -7 -7 -7 -7 -7 -6 -7 -7 -7 -7 -9 -8 -8 -7 -8 -7 -6 -7 -5 -4 -4 -4 -4 -4 -3
-15 -15 -15 -15 -15 -15 -16 -16 -15 -13 -11 -9 -8 -8 -8 -8 -7 -7 -8 -7 -7 -8 -7 -7 -7 -7 -6 -7 -8 -8 -8 -8 -8 -8 -8 -8 -7 -7 -6 -5 -4 -4 -4 -4 -3
-15 -15 -16 -16 -15 -15 -15 -16 -16 -15 -13 -11 -10 -9 -8 -8 -8 -8 -8 -7 -7 -7 -7 -7 -6 -7 -7 -7 -8 -8 -8 -9 -9 -8 -7 -7 -7 -6 -7 -6 -5 -4 -3 -4 -3
-15 -16 -16 -16 -16 -15 -15 -15 -16 -16 -15 -13 -11 -10 -10 -8 -8 -8 -8 -8 -7 -7 -8 -7 -7 -6 -6 -7 -7 -8 -9 -8 -8 -7 -7 -7 -7 -7 -6 -6 -5 -4 -4 -3 -3
-16 -16 -17 -17 -16 -16 -16 -16 -16 -16 -16 -15 -13 -12 -11 -10 -9 -8 -8 -8 -7 -7 -8 -7 -6 -6 -6 -6 -7 -8 -8 -8 -8 -7 -7 -7 -6 -6 -7 -6 -5 -4 -3 -3 -3
-17 -18 -18 -18 -17 -17 -17 -17 -17 -16 -16 -16 -15 -14 -12 -11 -10 -9 -8 -9 -8 -8 -8 -7 -7 -6 -7 -6 -7 -8 -7 -9 -8 -8 -7 -7 -7 -7 -7 -6 -5 -4 -3 -3 -3
-18 -19 -19 -18 -18 -19 -18 -18 -17 -17 -16 -16 -15 -13 -14 -11 -11 -10 -9 -8 -8 -7 -8 -8 -8 -7 -7 -6 -7 -7 -8 -9 -8 -8 -7 -7 -6 -7 -7 -6 -5 -4 -3 -3 -3
-19 -20 -20 -20 -20 -20 -19 -18 -18 -17 -18 -18 -16 -14 -14 -13 -12 -11 -10 -8 -8 -8 -7 -7 -7 -8 -7 -6 -7 -7 -7 -7 -8 -8 -8 -7 -6 -6 -6 -6 -4 -4 -4 -4 -4
-19 -20 -21 -21 -21 -20 -20 -19 -19 -20 -21 -20 -20 -17 -15 -14 -13 -12 -10 -9 -9 -8 -8 -8 -8 -8 -7 -7 -7 -7 -7 -7 -8 -8 -8 -7 -6 -6 -6 -6 -4 -4 -4 -4 -4
-20 -20 -21 -22 -21 -21 -21 -20 -21 -22 -22 -22 -21 -19 -16 -15 -14 -13 -11 -10 -9 -9 -8 -8 -8 -7 -6 -5 -6 -7 -7 -8 -8 -8 -7 -7 -7 -6 -6 -6 -5 -5 -4 -4 -4
-20 -21 -21 -22 -22 -22 -21 -22 -22 -23 -23 -23 -22 -20 -18 -16 -14 -14 -13 -10 -10 -9 -9 -9 -8 -8 -7 -8 -7 -6 -7 -7 -8 -8 -8 -7 -7 -7 -7 -6 -6 -5 -4 -5 -5
-21 -21 -21 -22 -22 -22 -22 -22 -23 -23 -23 -23 -22 -21 -19 -17 -15 -15 -13 -12 -10 -9 -9 -9 -8 -8 -7 -7 -6 -7 -7 -7 -7 -7 -8 -7 -7 -6 -7 -6 -5 -6 -6 -6 -5
-21 -22 -22 -22 -22 -23 -23 -23 -24 -24 -24 -23 -22 -21 -20 -19 -15 -14 -14 -13 -11 -10 -9 -9 -9 -8 -7 -8 -7 -6 -6 -7 -7 -7 -7 -7 -7 -7 -7 -6 -6 -5 -6 -6 -6

GFSSW_500_temp_195.txt.gz
Temp
-8 -8 -8 -8 -8 -8 -8 -8 -8 -8 -9 -9 -9 -9 -8 -9 -8 -9 -8 -8 -8 -8 -7 -7 -7 -7 -7 -6 -6 -6 -6 -6 -7 -5 -5 -4 -4 -4 -4 -4 -4 -5 -4 -4 -4
-8 -8 -8 -8 -8 -8 -8 -8 -8 -8 -8 -9 -9 -9 -9 -9 -9 -9 -9 -8 -8 -8 -8 -7 -8 -7 -7 -7 -6 -6 -6 -7 -8 -6 -5 -4 -4 -4 -4 -4 -4 -4 -4 -4 -4
-8 -8 -8 -8 -8 -8 -8 -8 -8 -9 -8 -8 -9 -9 -9 -9 -9 -8 -9 -9 -8 -8 -8 -7 -8 -8 -7 -8 -8 -8 -7 -7 -8 -5 -4 -4 -4 -4 -4 -4 -4 -4 -5 -4 -4
-7 -7 -8 -8 -8 -8 -8 -8 -8 -9 -9 -8 -8 -8 -8 -9 -9 -8 -9 -9 -9 -8 -8 -7 -8 -8 -9 -8 -7 -6 -6 -8 -5 -4 -4 -4 -3 -3 -4 -3 -3 -4 -4 -5 -5
-7 -8 -7 -8 -8 -8 -8 -8 -8 -8 -9 -9 -9 -8 -8 -8 -9 -8 -8 -9 -9 -9 -9 -8 -8 -8 -9 -8 -7 -8 -7 -7 -5 -5 -4 -4 -4 -4 -4 -4 -4 -4 -4 -5 -5
-7 -7 -7 -7 -7 -8 -8 -8 -8 -8 -8 -8 -9 -9 -8 -8 -8 -8 -8 -8 -9 -9 -9 -8 -8 -8 -8 -9 -7 -7 -8 -6 -5 -5 -4 -4 -4 -4 -4 -3 -3 -4 -4 -5 -5
-7 -7 -7 -7 -7 -8 -8 -8 -8 -8 -8 -8 -8 -9 -9 -9 -8 -8 -8 -8 -9 -9 -9 -8 -8 -8 -8 -9 -7 -9 -8 -6 -5 -4 -4 -5 -4 -5 -4 -4 -4 -4 -4 -4 -5
-7 -7 -7 -7 -7 -7 -7 -8 -8 -8 -8 -8 -8 -8 -8 -9 -8 -8 -8 -8 -8 -9 -9 -8 -8 -8 -8 -8 -8 -9 -8 -7 -6 -4 -3 -4 -4 -5 -4 -5 -5 -5 -5 -4 -5
-8 -8 -7 -7 -7 -7 -7 -7 -8 -8 -8 -8 -8 -8 -8 -8 -9 -9 -8 -8 -8 -8 -8 -8 -8 -8 -8 -8 -8 -8 -7 -7 -6 -7 -4 -4 -5 -4 -5 -5 -5 -5 -5 -5 -4
-9 -9 -8 -8 -8 -7 -8 -7 -7 -8 -8 -8 -8 -8 -8 -8 -9 -8 -8 -8 -8 -8 -8 -8 -8 -7 -7 -9 -7 -6 -7 -6 -7 -7 -5 -7 -6 -4 -5 -5 -5 -5 -5 -5 -5
-11 -11 -10 -10 -10 -9 -8 -8 -7 -7 -8 -8 -8 -8 -8 -7 -8 -8 -8 -8 -8 -8 -8 -8 -8 -7 -7 -8 -7 -7 -7 -7 -7 -8 -6 -8 -8 -4 -5 -5 -5 -5 -5 -5 -5
-13 -13 -13 -13 -12 -11 -10 -9 -8 -8 -7 -8 -8 -8 -8 -7 -8 -8 -8 -8 -8 -8 -8 -8 -7 -7 -7 -9 -8 -7 -7 -7 -7 -7 -7 -8 -7 -8 -5 -5 -5 -5 -5 -5 -5
-14 -14 -15 -15 -15 -14 -12 -11 -10 -9 -8 -8 -8 -7 -8 -8 -7 -8 -8 -8 -8 -8 -8 -8 -7 -7 -7 -8 -9 -8 -7 -7 -7 -7 -7 -6 -6 -6 -5 -5 -5 -5 -5 -5 -5
-13 -14 -14 -15 -15 -15 -15 -13 -12 -11 -9 -8 -8 -8 -8 -8 -7 -8 -8 -8 -8 -8 -8 -8 -8 -9 -7 -8 -9 -8 -8 -7 -8 -7 -7 -7 -6 -6 -6 -5 -5 -4 -4 -4 -4
-13 -14 -14 -14 -14 -14 -15 -15 -14 -13 -11 -10 -8 -7 -8 -7 -8 -8 -8 -8 -8 -7 -8 -7 -8 -8 -8 -7 -9 -8 -8 -7 -8 -7 -7 -6 -6 -6 -6 -5 -4 -4 -4 -4 -3
-14 -14 -14 -14 -14 -14 -15 -15 -15 -15 -13 -12 -10 -9 -8 -8 -8 -8 -8 -8 -8 -8 -7 -8 -8 -8 -7 -6 -7 -8 -8 -7 -8 -7 -6 -6 -6 -5 -5 -5 -4 -4 -4 -4 -4
-14 -14 -14 -14 -14 -14 -15 -15 -15 -16 -15 -15 -13 -10 -9 -9 -8 -8 -8 -8 -8 -8 -7 -7 -7 -7 -7 -9 -9 -9 -8 -7 -7 -7 -6 -6 -6 -6 -6 -6 -5 -4 -4 -4 -4
-15 -15 -15 -15 -15 -15 -15 -16 -15 -15 -16 -16 -14 -11 -11 -10 -9 -8 -8 -8 -8 -8 -8 -7 -7 -7 -7 -8 -8 -9 -8 -7 -7 -6 -5 -6 -6 -6 -6 -6 -5 -4 -4 -3 -4
-15 -15 -15 -16 -16 -16 -16 -16 -16 -17 -18 -16 -14 -13 -13 -12 -10 -9 -8 -8 -8 -8 -8 -9 -6 -7 -7 -6 -7 -8 -8 -7 -6 -6 -6 -7 -6 -6 -6 -6 -6 -5 -3 -3 -4
-16 -16 -16 -17 -17 -18 -18 -17 -17 -16 -15 -16 -16 -15 -14 -13 -12 -10 -9 -8 -9 -8 -8 -9 -9 -9 -7 -7 -7 -8 -8 -8 -7 -7 -6 -7 -6 -5 -6 -6 -6 -5 -4 -4 -3
-16 -17 -16 -18 -19 -19 -19 -19 -19 -17 -16 -16 -16 -16 -15 -15 -14 -12 -11 -10 -11 -10 -9 -9 -10 -9 -9 -7 -6 -7 -8 -8 -7 -6 -7 -7 -6 -5 -6 -6 -6 -4 -4 -3 -3
-16 -18 -18 -19 -19 -20 -20 -22 -18 -18 -18 -17 -17 -16 -15 -15 -14 -12 -11 -14 -10 -9 -8 -8 -10 -9 -9 -8 -6 -7 -8 -8 -7 -7 -6 -7 -6 -6 -5 -6 -5 -4 -4 -3 -3
-17 -18 -19 -20 -20 -22 -22 -20 -20 -19 -19 -18 -17 -17 -16 -16 -15 -13 -15 -10 -9 -10 -9 -8 -9 -10 -9 -9 -7 -6 -8 -8 -7 -7 -7 -7 -7 -7 -6 -5 -5 -4 -5 -4 -3
-18 -19 -19 -20 -21 -22 -22 -21 -20 -20 -19 -18 -18 -17 -17 -16 -15 -14 -13 -11 -10 -9 -8 -9 -8 -10 -9 -8 -7 -6 -8 -8 -8 -7 -6 -6 -7 -7 -7 -6 -5 -4 -4 -4 -4
-18 -19 -20 -21 -21 -22 -21 -21 -21 -21 -20 -19 -19 -18 -18 -16 -15 -14 -14 -13 -11 -10 -10 -9 -9 -8 -7 -9 -8 -8 -6 -8 -8 -7 -7 -6 -7 -7 -7 -6 -5 -5 -4 -4 -4
-18 -19 -21 -21 -22 -22 -22 -22 -22 -22 -21 -21 -20 -22 -19 -19 -20 -19 -17 -15 -14 -12 -11 -10 -9 -9 -8 -9 -9 -8 -8 -7 -8 -8 -7 -6 -6 -7 -7 -6 -6 -5 -4 -4 -4
-19 -20 -21 -21 -22 -22 -22 -22 -22 -22 -22 -22 -21 -21 -21 -21 -22 -20 -17 -15 -12 -10 -10 -9 -9 -9 -8 -8 -9 -9 -8 -8 -7 -8 -7 -7 -6 -6 -7 -7 -6 -6 -5 -5 -4

GFSSW_500_temp_198.txt.gz
Temp
-7 -7 -7 -8 -8 -8 -8 -8 -8 -8 -8 -8 -9 -9 -8 -8 -8 -7 -7 -8 -8 -7 -7 -7 -6 -6 -5 -5 -5 -6 -5 -5 -5 -6 -5 -4 -4 -3 -4 -3 -4 -4 -4 -4 -4
-7 -7 -7 -7 -7 -8 -8 -8 -8 -8 -8 -8 -8 -9 -9 -8 -8 -8 -8 -8 -8 -7 -7 -7 -6 -6 -6 -5 -6 -7 -7 -5 -6 -6 -4 -6 -4 -3 -3 -4 -4 -4 -4 -4 -4
-7 -7 -7 -7 -7 -7 -7 -8 -8 -8 -8 -8 -8 -8 -8 -8 -8 -8 -8 -8 -8 -8 -8 -7 -7 -7 -6 -7 -8 -7 -6 -5 -6 -5 -7 -4 -3 -3 -3 -3 -3 -3 -4 -4 -4
-8 -7 -7 -7 -7 -7 -7 -7 -8 -8 -8 -8 -8 -8 -8 -8 -9 -7 -8 -8 -8 -8 -8 -8 -8 -7 -7 -8 -7 -7 -7 -7 -5 -4 -5 -4 -3 -3 -5 -4 -4 -4 -4 -4 -4
-7 -7 -8 -8 -7 -7 -7 -7 -8 -8 -8 -8 -8 -8 -8 -8 -9 -8 -8 -8 -8 -8 -8 -8 -8 -8 -9 -8 -8 -7 -7 -7 -4 -3 -4 -4 -4 -3 -4 -4 -4 -3 -3 -4 -4
-7 -7 -7 -7 -7 -8 -7 -7 -7 -8 -8 -8 -8 -8 -8 -8 -9 -7 -8 -8 -8 -8 -8 -7 -7 -7 -7 -9 -7 -7 -7 -8 -7 -5 -4 -4 -4 -4 -4 -4 -4 -4 -4 -3 -4
-7 -7 -7 -7 -7 -7 -8 -8 -7 -7 -8 -8 -8 -8 -7 -8 -8 -7 -8 -8 -8 -8 -8 -8 -7 -7 -7 -8 -7 -7 -7 -7 -8 -5 -5 -5 -6 -6 -5 -4 -4 -4 -4 -4 -4
-6 -7 -7 -7 -7 -7 -7 -7 -8 -8 -7 -8 -8 -8 -7 -8 -8 -7 -8 -8 -8 -8 -8 -8 -7 -7 -7 -6 -7 -6 -6 -7 -5 -5 -5 -6 -6 -5 -4 -5 -5 -5 -5 -4 -4
-7 -7 -7 -7 -7 -7 -7 -7 -7 -8 -8 -7 -8 -7 -7 -8 -7 -7 -8 -8 -8 -8 -8 -8 -8 -7 -8 -7 -7 -7 -7 -6 -6 -7 -5 -5 -5 -5 -3 -5 -5 -5 -4 -4 -4
-7 -8 -7 -7 -7 -7 -7 -7 -7 -7 -8 -8 -8 -7 -8 -8 -8 -8 -8 -8 -8 -8 -8 -8 -8 -7 -7 -8 -7 -7 -6 -6 -6 -6 -5 -6 -5 -5 -3 -5 -5 -4 -4 -4 -4
-10 -10 -9 -9 -9 -9 -8 -7 -7 -7 -7 -8 -8 -7 -7 -8 -7 -7 -8 -8 -8 -8 -8 -8 -8 -7 -7 -7 -9 -7 -7 -6 -7 -7 -7 -7 -5 -4 -5 -5 -5 -5 -4 -4 -5
-12 -12 -12 -11 -11 -11 -10 -9 -8 -8 -7 -7 -8 -7 -8 -7 -7 -8 -8 -8 -8 -8 -8 -8 -8 -7 -7 -7 -9 -7 -7 -6 -6 -7 -6 -7 -7 -5 -5 -6 -6 -5 -5 -4 -5
-13 -13 -13 -13 -13 -13 -13 -12 -11 -10 -8 -8 -7 -7 -8 -8 -7 -8 -8 -8 -7 -8 -8 -8 -7 -7 -7 -7 -9 -8 -8 -7 -7 -6 -7 -6 -5 -6 -5 -6 -4 -5 -5 -5 -4
-13 -13 -13 -13 -13 -13 -13 -14 -14 -13 -9 -8 -9 -7 -8 -8 -7 -8 -8 -8 -8 -7 -7 -8 -8 -8 -7 -7 -9 -8 -8 -7 -5 -7 -6 -6 -6 -6 -6 -4 -4 -4 -5 -5 -4
-13 -13 -13 -13 -13 -13 -13 -13 -13 -15 -11 -11 -10 -8 -8 -8 -8 -8 -8 -8 -7 -7 -8 -7 -8 -8 -7 -8 -8 -8 -8 -7 -7 -7 -7 -6 -5 -6 -6 -5 -4 -4 -4 -4 -4
-14 -14 -14 -14 -14 -14 -14 -13 -14 -14 -13 -12 -12 -10 -9 -8 -8 -8 -8 -8 -8 -8 -8 -7 -7 -8 -7 -8 -8 -7 -8 -7 -7 -7 -6 -6 -6 -5 -6 -5 -4 -4 -4 -4 -3
-14 -14 -14 -14 -14 -14 -14 -14 -14 -14 -14 -14 -14 -13 -11 -10 -9 -8 -8 -8 -8 -8 -8 -8 -7 -7 -7 -9 -8 -8 -8 -7 -7 -7 -6 -6 -5 -5 -6 -6 -5 -5 -4 -3 -3
-15 -15 -15 -15 -15 -15 -15 -15 -14 -14 -14 -15 -15 -15 -15 -12 -10 -9 -9 -9 -8 -8 -8 -8 -7 -7 -7 -8 -8 -8 -8 -7 -7 -6 -5 -5 -6 -5 -5 -6 -5 -5 -4 -4 -3
-15 -15 -15 -15 -15 -15 -15 -15 -15 -15 -16 -17 -16 -16 -16 -13 -11 -12 -9 -9 -9 -9 -8 -8 -7 -8 -7 -8 -9 -8 -8 -7 -7 -6 -6 -6 -6 -6 -6 -6 -5 -4 -4 -4 -3
-15 -15 -15 -15 -15 -15 -16 -16 -16 -17 -18 -16 -16 -15 -16 -14 -14 -12 -11 -9 -9 -10 -9 -8 -8 -8 -8 -8 -8 -8 -8 -8 -7 -6 -6 -6 -6 -6 -6 -6 -6 -6 -3 -3 -3
-16 -15 -15 -16 -16 -16 -16 -17 -18 -19 -19 -17 -16 -16 -15 -15 -15 -15 -13 -12 -13 -11 -12 -9 -8 -8 -9 -9 -8 -8 -8 -8 -7 -6 -6 -7 -6 -6 -7 -5 -6 -6 -3 -3 -3
-16 -16 -15 -16 -16 -17 -18 -19 -20 -20 -19 -18 -17 -17 -16 -15 -16 -15 -15 -14 -13 -11 -10 -10 -10 -8 -9 -8 -8 -8 -7 -7 -7 -7 -6 -6 -7 -6 -6 -7 -6 -5 -4 -3 -4
-16 -16 -16 -17 -17 -18 -21 -21 -21 -21 -20 -19 -18 -18 -18 -16 -15 -15 -15 -15 -14 -12 -11 -10 -8 -9 -9 -9 -8 -8 -8 -7 -7 -7 -7 -6 -7 -6 -6 -7 -7 -6 -4 -3 -3
-16 -17 -16 -17 -18 -19 -21 -21 -21 -22 -21 -20 -19 -19 -18 -17 -16 -16 -15 -15 -13 -13 -10 -10 -9 -8 -9 -8 -8 -8 -8 -7 -7 -7 -6 -6 -7 -7 -6 -6 -7 -5 -4 -3 -3
-17 -17 -18 -18 -19 -20 -21 -22 -21 -22 -22 -21 -20 -19 -18 -18 -17 -16 -15 -14 -12 -14 -11 -11 -9 -9 -7 -9 -8 -8 -8 -8 -8 -7 -7 -6 -6 -6 -6 -6 -6 -5 -4 -4 -3
-18 -18 -18 -18 -20 -20 -21 -22 -22 -22 -22 -22 -21 -21 -22 -18 -18 -17 -16 -16 -15 -14 -13 -12 -10 -10 -8 -8 -8 -8 -8 -8 -8 -7 -7 -6 -7 -7 -6 -7 -6 -7 -5 -4 -4
-18 -19 -19 -19 -20 -21 -22 -22 -22 -22 -22 -22 -22 -20 -19 -19 -18 -17 -16 -16 -15 -13 -13 -12 -10 -10 -9 -8 -8 -8 -8 -8 -7 -7 -7 -6 -8 -6 -6 -7 -6 -7 -5 -4 -4

GFSSW_500_temp_201.txt.gz
Temp
-7 -7 -7 -7 -7 -7 -7 -7 -8 -8 -7 -8 -8 -8 -8 -8 -7 -7 -7 -7 -7 -7 -7 -7 -7 -7 -7 -6 -5 -5 -7 -6 -5 -5 -5 -4 -4 -3 -5 -4 -4 -4 -4 -3 -3
-7 -7 -7 -7 -7 -7 -7 -7 -7 -7 -7 -7 -8 -8 -8 -8 -8 -7 -8 -7 -7 -7 -7 -7 -8 -7 -6 -5 -6 -6 -7 -6 -5 -6 -6 -6 -4 -4 -3 -4 -4 -4 -4 -3 -3
-7 -7 -7 -7 -7 -7 -7 -7 -7 -7 -7 -7 -7 -8 -8 -8 -8 -7 -7 -8 -7 -7 -7 -8 -7 -7 -7 -7 -7 -7 -8 -6 -6 -5 -6 -3 -4 -4 -3 -3 -3 -4 -4 -4 -4
-7 -7 -7 -7 -7 -7 -7 -7 -7 -7 -7 -7 -7 -8 -8 -8 -7 -7 -7 -7 -8 -7 -8 -8 -8 -7 -6 -8 -8 -7 -8 -6 -7 -6 -7 -6 -5 -4 -5 -5 -4 -4 -4 -4 -4
-7 -7 -7 -7 -7 -7 -7 -7 -7 -7 -7 -7 -7 -7 -7 -7 -8 -7 -7 -7 -7 -8 -7 -8 -8 -7 -6 -8 -8 -7 -7 -7 -8 -7 -7 -6 -6 -4 -4 -5 -4 -4 -4 -4 -4
-6 -7 -7 -7 -7 -7 -7 -7 -7 -7 -7 -7 -7 -7 -7 -6 -8 -7 -7 -8 -7 -8 -7 -8 -7 -7 -7 -7 -8 -8 -7 -6 -6 -8 -6 -5 -3 -3 -4 -3 -3 -3 -4 -4 -4
-6 -6 -6 -6 -7 -7 -7 -7 -8 -7 -7 -7 -7 -7 -6 -7 -7 -7 -6 -8 -7 -8 -8 -7 -7 -7 -7 -6 -5 -7 -7 -7 -7 -7 -6 -6 -5 -4 -4 -3 -3 -4 -4 -4 -4
-7 -6 -6 -6 -6 -6 -7 -7 -7 -8 -7 -7 -7 -6 -6 -8 -7 -6 -7 -8 -8 -8 -8 -8 -7 -7 -7 -7 -7 -7 -7 -7 -6 -6 -6 -6 -4 -6 -4 -4 -3 -4 -4 -4 -4
-8 -8 -7 -7 -7 -6 -6 -7 -7 -7 -7 -7 -7 -7 -6 -7 -7 -7 -7 -8 -8 -8 -8 -8 -8 -7 -7 -7 -7 -7 -7 -7 -6 -7 -7 -7 -6 -6 -5 -4 -3 -4 -4 -4 -4
-9 -9 -9 -8 -8 -7 -7 -7 -7 -7 -7 -8 -7 -7 -7 -8 -8 -7 -7 -7 -8 -8 -8 -8 -8 -8 -7 -7 -8 -7 -8 -6 -6 -7 -6 -6 -7 -5 -5 -4 -4 -4 -5 -5 -4
-11 -11 -10 -10 -10 -9 -8 -7 -7 -7 -7 -7 -7 -7 -7 -7 -7 -7 -6 -7 -8 -8 -7 -8 -8 -8 -8 -7 -8 -9 -9 -8 -7 -7 -7 -5 -6 -6 -6 -6 -4 -3 -5 -5 -5
-12 -12 -12 -12 -11 -11 -10 -10 -9 -7 -8 -7 -7 -7 -7 -8 -7 -7 -6 -6 -7 -7 -7 -8 -7 -7 -8 -8 -8 -9 -9 -8 -7 -7 -6 -6 -6 -7 -6 -6 -4 -4 -4 -5 -5
-13 -13 -13 -13 -12 -12 -12 -12 -11 -10 -7 -8 -7 -7 -7 -8 -7 -7 -8 -8 -7 -7 -7 -7 -7 -8 -8 -8 -8 -7 -8 -8 -7 -6 -7 -7 -6 -6 -5 -5 -4 -5 -4 -5 -5
-13 -13 -13 -13 -13 -13 -13 -13 -13 -12 -8 -9 -9 -7 -7 -8 -7 -7 -8 -8 -7 -7 -7 -7 -7 -8 -8 -8 -8 -7 -7 -7 -6 -7 -6 -7 -6 -6 -5 -5 -5 -5 -5 -5 -5
-13 -13 -14 -14 -14 -13 -13 -13 -13 -13 -11 -11 -10 -9 -9 -8 -8 -8 -8 -8 -7 -7 -7 -6 -6 -8 -7 -7 -8 -7 -7 -8 -8 -8 -6 -8 -7 -6 -6 -4 -5 -5 -6 -5 -5
-14 -14 -14 -14 -14 -14 -14 -14 -13 -14 -13 -12 -13 -12 -11 -9 -9 -9 -8 -9 -9 -8 -8 -7 -7 -8 -7 -8 -8 -8 -8 -8 -8 -9 -8 -6 -6 -6 -6 -6 -6 -5 -6 -6 -4
-15 -14 -14 -14 -14 -14 -15 -15 -14 -14 -14 -14 -14 -14 -14 -11 -10 -9 -9 -8 -8 -8 -7 -7 -7 -7 -7 -8 -8 -8 -7 -8 -8 -8 -8 -6 -6 -6 -6 -6 -6 -4 -5 -5 -5
-15 -15 -14 -15 -15 -15 -15 -15 -14 -14 -14 -15 -15 -14 -13 -13 -12 -10 -10 -9 -9 -8 -8 -7 -7 -7 -7 -7 -8 -7 -8 -8 -8 -7 -6 -6 -6 -6 -6 -6 -6 -6 -5 -4 -4
-15 -15 -15 -15 -15 -15 -15 -15 -15 -15 -15 -15 -14 -15 -14 -15 -14 -14 -12 -11 -9 -9 -9 -8 -7 -7 -7 -7 -7 -8 -9 -8 -8 -6 -7 -7 -6 -7 -6 -6 -6 -5 -4 -4 -3
-16 -15 -15 -15 -15 -15 -15 -15 -15 -15 -15 -15 -15 -15 -15 -14 -15 -14 -14 -13 -12 -11 -9 -9 -8 -7 -8 -8 -8 -7 -8 -8 -8 -7 -7 -7 -7 -7 -6 -7 -4 -4 -5 -5 -4
-16 -16 -15 -16 -15 -15 -15 -15 -15 -15 -16 -16 -15 -15 -15 -15 -14 -15 -14 -14 -14 -13 -12 -10 -10 -8 -8 -8 -8 -8 -8 -8 -8 -7 -7 -7 -7 -6 -7 -7 -6 -5 -5 -5 -4
-16 -15 -15 -16 -15 -15 -15 -15 -16 -16 -17 -17 -17 -16 -16 -16 -14 -14 -15 -15 -14 -13 -13 -11 -10 -9 -8 -8 -8 -9 -8 -8 -8 -7 -7 -7 -7 -7 -6 -6 -6 -7 -4 -4 -5
-16 -16 -15 -15 -16 -16 -16 -16 -16 -17 -19 -20 -19 -19 -18 -17 -16 -14 -15 -15 -14 -14 -13 -12 -9 -8 -9 -8 -8 -9 -8 -8 -8 -7 -7 -7 -6 -7 -6 -6 -6 -7 -4 -5 -6
-16 -16 -16 -17 -17 -17 -17 -17 -17 -19 -20 -22 -20 -20 -19 -18 -17 -15 -15 -15 -15 -14 -13 -12 -10 -9 -8 -9 -8 -9 -9 -8 -8 -7 -6 -6 -6 -6 -6 -7 -7 -6 -5 -5 -6
-17 -17 -18 -18 -17 -18 -18 -18 -18 -20 -21 -22 -20 -21 -20 -19 -18 -17 -15 -16 -15 -14 -13 -12 -11 -9 -8 -8 -8 -9 -9 -8 -8 -7 -7 -6 -7 -6 -7 -7 -6 -6 -5 -6 -6
-17 -17 -18 -19 -18 -19 -19 -20 -20 -21 -22 -21 -21 -21 -22 -20 -19 -18 -16 -16 -16 -14 -14 -12 -11 -10 -8 -8 -8 -8 -8 -8 -8 -7 -7 -6 -7 -7 -7 -7 -7 -7 -6 -6 -6
-17 -17 -18 -18 -19 -19 -20 -20 -21 -21 -21 -22 -21 -21 -21 -22 -21 -18 -17 -16 -16 -15 -13 -12 -10 -9 -8 -8 -8 -8 -8 -8 -8 -7 -7 -6 -7 -8 -8 -8 -7 -7 -7 -6 -6

GFSSW_500_temp_204.txt.gz
Temp
-7 -7 -7 -7 -7 -7 -7 -7 -7 -7 -7 -7 -7 -7 -7 -7 -7 -8 -8 -8 -8 -8 -8 -8 -8 -8 -6 -5 -5 -5 -5 -6 -6 -6 -5 -5 -5 -5 -5 -5 -4 -4 -3 -4 -4
-7 -7 -7 -7 -7 -7 -7 -7 -7 -7 -7 -7 -7 -7 -7 -7 -8 -8 -8 -8 -8 -8 -9 -8 -8 -8 -6 -4 -5 -5 -5 -6 -6 -5 -5 -5 -5 -5 -5 -5 -4 -3 -4 -4 -3
-7 -7 -7 -7 -7 -7 -7 -7 -6 -7 -7 -7 -7 -7 -7 -7 -8 -8 -8 -8 -8 -8 -9 -8 -8 -8 -7 -5 -6 -6 -5 -6 -6 -6 -5 -5 -4 -5 -5 -4 -4 -4 -4 -4 -4
-7 -7 -7 -7 -7 -7 -7 -7 -7 -6 -6 -7 -6 -6 -7 -7 -7 -7 -8 -8 -8 -8 -9 -8 -8 -8 -6 -6 -7 -5 -6 -6 -5 -4 -4 -4 -4 -6 -5 -4 -4 -4 -4 -4 -5
-6 -7 -7 -7 -7 -7 -7 -7 -7 -7 -7 -6 -7 -6 -6 -6 -7 -8 -8 -8 -8 -8 -9 -8 -8 -8 -6 -6 -7 -8 -7 -6 -4 -3 -4 -4 -5 -5 -5 -3 -3 -3 -3 -3 -4
-6 -6 -6 -6 -7 -7 -7 -7 -7 -7 -7 -7 -6 -6 -6 -6 -8 -7 -8 -8 -9 -8 -8 -9 -8 -7 -7 -7 -8 -5 -6 -7 -7 -6 -6 -5 -5 -5 -5 -4 -4 -3 -3 -3 -4
-6 -6 -6 -6 -6 -7 -7 -7 -7 -7 -7 -7 -6 -6 -6 -7 -7 -7 -7 -8 -9 -8 -8 -9 -8 -8 -7 -6 -7 -7 -7 -7 -6 -7 -6 -5 -5 -5 -5 -4 -4 -4 -4 -3 -4
-7 -7 -6 -6 -6 -6 -6 -7 -7 -7 -7 -7 -7 -6 -6 -8 -7 -6 -6 -8 -9 -9 -8 -8 -8 -8 -8 -7 -7 -7 -7 -7 -7 -7 -6 -5 -4 -5 -5 -5 -4 -4 -4 -5 -5
-9 -8 -8 -7 -6 -6 -6 -6 -7 -7 -7 -7 -7 -6 -7 -7 -7 -7 -7 -8 -8 -9 -9 -8 -8 -8 -8 -8 -7 -7 -8 -7 -7 -7 -6 -5 -4 -5 -5 -5 -5 -4 -4 -5 -5
-10 -9 -9 -8 -7 -7 -7 -6 -7 -7 -7 -7 -7 -7 -7 -7 -7 -6 -6 -7 -8 -9 -9 -9 -8 -8 -8 -8 -8 -8 -8 -7 -7 -6 -6 -6 -6 -5 -4 -5 -6 -5 -5 -5 -5
-10 -11 -11 -10 -10 -9 -8 -8 -7 -7 -7 -7 -7 -7 -7 -7 -8 -7 -7 -7 -8 -8 -8 -8 -8 -7 -8 -8 -8 -8 -8 -7 -7 -7 -6 -6 -5 -5 -5 -4 -6 -6 -6 -5 -5
-12 -12 -12 -12 -12 -10 -10 -10 -9 -8 -8 -7 -7 -7 -8 -7 -7 -7 -8 -7 -7 -7 -7 -8 -7 -7 -8 -8 -8 -8 -7 -7 -7 -7 -6 -6 -5 -5 -5 -5 -6 -6 -6 -6 -6
-13 -13 -13 -12 -12 -12 -12 -12 -10 -9 -8 -10 -7 -7 -7 -8 -7 -7 -8 -7 -7 -7 -7 -7 -7 -8 -8 -8 -9 -9 -7 -7 -7 -7 -7 -6 -6 -6 -6 -6 -6 -6 -6 -6 -6
-13 -13 -13 -13 -13 -13 -13 -13 -12 -11 -10 -11 -11 -9 -8 -8 -7 -8 -7 -8 -8 -7 -8 -7 -7 -8 -8 -8 -8 -9 -7 -7 -8 -7 -7 -7 -6 -7 -7 -7 -6 -7 -6 -6 -6
-14 -14 -14 -14 -14 -13 -13 -13 -13 -13 -12 -12 -12 -11 -9 -8 -9 -9 -8 -8 -8 -7 -8 -7 -7 -8 -7 -7 -9 -7 -8 -7 -8 -7 -8 -8 -6 -6 -6 -7 -7 -6 -6 -5 -6
-14 -14 -15 -14 -14 -14 -14 -14 -13 -13 -14 -13 -12 -11 -10 -9 -9 -9 -9 -8 -9 -9 -8 -7 -8 -8 -7 -8 -8 -8 -8 -8 -9 -10 -7 -7 -7 -6 -5 -6 -6 -6 -6 -5 -5
-15 -15 -15 -15 -15 -14 -14 -14 -14 -14 -14 -14 -13 -12 -11 -11 -11 -10 -9 -9 -8 -8 -7 -7 -7 -7 -7 -8 -8 -8 -8 -8 -8 -8 -5 -7 -8 -6 -6 -6 -6 -6 -6 -5 -5
-15 -16 -15 -15 -15 -15 -15 -15 -15 -15 -15 -14 -14 -14 -14 -12 -12 -12 -11 -10 -9 -9 -8 -8 -7 -7 -7 -7 -8 -8 -8 -7 -7 -8 -5 -8 -7 -7 -6 -6 -6 -6 -6 -5 -4
-16 -16 -16 -15 -15 -15 -15 -15 -15 -15 -15 -15 -15 -15 -15 -14 -13 -12 -12 -12 -11 -10 -9 -9 -7 -8 -8 -8 -8 -8 -8 -7 -8 -8 -7 -8 -8 -8 -6 -6 -6 -5 -5 -4 -4
-16 -15 -16 -16 -15 -15 -15 -15 -15 -15 -15 -15 -14 -15 -15 -15 -15 -13 -13 -13 -13 -12 -11 -9 -8 -8 -9 -9 -8 -8 -8 -8 -8 -7 -7 -8 -8 -8 -6 -6 -6 -5 -7 -6 -4
-16 -15 -16 -16 -15 -15 -15 -15 -15 -15 -15 -15 -15 -14 -14 -15 -15 -14 -14 -14 -14 -13 -11 -10 -9 -8 -9 -9 -8 -8 -8 -8 -8 -8 -7 -7 -7 -7 -8 -7 -6 -5 -4 -4 -4
-16 -16 -16 -16 -16 -16 -16 -15 -15 -15 -15 -15 -15 -15 -15 -15 -15 -15 -14 -14 -14 -13 -13 -11 -10 -8 -7 -9 -9 -9 -8 -9 -8 -7 -6 -7 -7 -7 -7 -7 -7 -6 -5 -4 -4
-16 -15 -16 -16 -16 -15 -15 -15 -15 -16 -16 -15 -15 -15 -15 -15 -16 -16 -15 -15 -14 -14 -14 -12 -9 -8 -9 -9 -9 -9 -8 -8 -8 -8 -7 -7 -7 -7 -7 -7 -7 -7 -6 -5 -5
-16 -16 -16 -16 -16 -16 -16 -16 -16 -16 -16 -16 -16 -16 -16 -16 -17 -17 -15 -15 -15 -14 -14 -13 -10 -9 -9 -8 -9 -9 -8 -8 -8 -8 -7 -7 -6 -6 -7 -7 -7 -6 -6 -4 -5
-16 -16 -16 -16 -16 -17 -17 -17 -17 -18 -18 -17 -17 -17 -17 -19 -19 -18 -16 -15 -16 -14 -14 -13 -11 -9 -8 -9 -9 -9 -9 -8 -8 -8 -8 -7 -6 -7 -7 -7 -7 -7 -6 -5 -5
-17 -16 -17 -17 -17 -17 -18 -18 -18 -18 -18 -18 -18 -19 -19 -20 -20 -20 -17 -15 -16 -15 -14 -13 -13 -9 -8 -9 -9 -9 -9 -9 -9 -8 -8 -7 -7 -7 -7 -7 -7 -7 -6 -6 -6
-17 -17 -18 -18 -18 -18 -18 -18 -19 -19 -20 -19 -19 -20 -21 -21 -19 -19 -19 -17 -16 -16 -14 -14 -13 -11 -10 -9 -9 -9 -9 -9 -9 -9 -8 -8 -7 -7 -7 -7 -7 -7 -7 -7 -6